Regional Weather Roundup
Issued by NWS

Home | Current Version | Previous Version | Text Only | Print | Product List | Glossary Off
Versions: 1 2 3 4 5 6 7 8 9 10 11 12 13 14 15 16 17 18 19 20 21 22 23 24 25 26 27 28 29 30 31 32 33 34 35 36 37 38 39 40 41 42 43 44 45 46 47 48 49 50

198
ASUS44 KMEG 220110
RWRTN
TENNESSEE HOURLY STATE WEATHER ROUNDUP
NATIONAL WEATHER SERVICE MEMPHIS TN
800 PM CDT WED JUN 21 2017

TNZ002-004-019-021-049-052-054-088>092-220200-
WEST TENNESSEE

CITY           SKY/WX    TMP DP  RH WIND       PRES   REMARKS
MEMPHIS INTL   CLOUDY    80  70  71 SE12G22   29.92F
NWS MEMPHIS      N/A     79 N/A N/A MISG        N/A
JACKSON        MOCLDY    79  70  74 SE9       29.96S
SOMERVILLE     CLOUDY    79  70  73 VRB6G14   29.94F
COVINGTON      CLEAR     81  70  69 SE10      29.94S
UNION CITY     CLEAR     81  70  69 SE5       29.95S
BOLIVAR        CLOUDY    79  70  73 SE10G17   29.96S
PARIS          CLEAR     79  72  78 CALM      29.97S
HUNTINGDON     CLEAR     81  72  74 SE6       29.96F
LEXINGTON      CLEAR     77  70  78 S8        29.98F
SELMER         CLOUDY    77  70  78 SE7G14    29.98F
SAVANNAH       CLOUDY    77  70  78 SE6       29.98S
$$

TNZ008-025-027-028-033-062-065-066-220200-
NORTH MIDDLE TENNESSEE

CITY           SKY/WX    TMP DP  RH WIND       PRES   REMARKS
NASHVILLE      CLOUDY    81  68  64 S10       30.02R
PORTLAND       CLEAR     77  72  83 SE3       30.01R
CLARKSVILLE    CLOUDY    79  68  69 S3        29.99S
SMYRNA         CLOUDY    80  69  69 VRB6      30.03R
COOKEVILLE     CLEAR     77  70  78 S6        30.05S
GALLATIN       MOCLDY    79  72  78 S5        30.04R
CROSSVILLE     PTCLDY    73  67  81 CALM      30.12R
$$

TNZ061-075-076-078-094-096-097-220200-
SOUTH MIDDLE TENNESSEE

CITY           SKY/WX    TMP DP  RH WIND       PRES   REMARKS
FAYETTEVILLE   CLOUDY    77  68  73 S5        30.05S
TULLAHOMA      CLEAR     75  66  73 S6        30.07S
WINCHESTER     MOCLDY    77  68  73 S9        30.07R
MCMINNVILLE    CLEAR     79  68  69 CALM      30.06S
COLUMBIA       CLEAR     77  72  83 CALM      30.00F
SHELBYVILLE    CLEAR     77  68  73 S5        30.04S
$$

TNZ017-018-042-046-047-220200-
NORTHEAST TENNESSEE

CITY           SKY/WX    TMP DP  RH WIND       PRES   REMARKS
TRI CITIES     MOCLDY    76  61  59 W3        30.10R
ELIZABETHTON   PTCLDY    70  64  83 CALM      30.10S
$$

TNZ012-013-036-069-073-074-220200-
CENTRAL EAST TENNESSEE

CITY           SKY/WX    TMP DP  RH WIND       PRES   REMARKS
KNOXVILLE      CLOUDY    76  66  71 SW7       30.07R
OAK RIDGE      PTCLDY    80  67  64 S3        30.08S
DOWNTOWN KNOXV CLEAR     77  70  78 SW5       30.06S
GATLINBURG     CLEAR     73  68  83 CALM      30.08R
MORRISTOWN     CLEAR     75  70  83 S3        30.08S
JACKSBORO      CLEAR     75  70  83 CALM      30.11R
$$

TNZ083-085-099-220200-
SOUTHEAST TENNESSEE

CITY           SKY/WX    TMP DP  RH WIND       PRES   REMARKS
CHATTANOOGA    CLOUDY    76  66  71 S7        30.07S
$$

SKY/WX REPORTED AS FAIR MEANS FEW OR NO CLOUDS BELOW
12 THOUSAND FEET.





USA.gov is the U.S. government's official web portal to all federal, state and local government web resources and services.